Time,TemperatureF,DewpointF,PressureIn,WindDirection,WindDirectionDegrees,WindSpeedMPH,WindSpeedGustMPH,Humidity,HourlyPrecipIn,Conditions,Clouds,dailyrainin,SolarRadiationWatts/m^2,SoftwareType,DateUTC
2013-03-08 00:00:00,41.7,40.1,30.19,WNW,297,0.0,0.0,94,0.00,,,0.00,0,Wunderground v.1.15,2013-03-08 05:00:00,
2013-03-08 00:02:00,41.7,40.1,30.19,WNW,297,0.0,0.0,94,0.00,,,0.00,0,Wunderground v.1.15,2013-03-08 05:02:00,
2013-03-08 00:03:00,41.7,40.1,30.19,WNW,297,0.0,0.0,94,0.00,,,0.00,0,Wunderground v.1.15,2013-03-08 05:03:00,
2013-03-08 00:05:00,41.7,40.1,30.19,WNW,297,0.0,0.0,94,0.00,,,0.00,0,Wunderground v.1.15,2013-03-08 05:05:00,
2013-03-08 00:10:00,41.7,40.1,30.19,WNW,297,0.0,0.0,94,0.00,,,0.00,0,Wunderground v.1.15,2013-03-08 05:10:00,
2013-03-08 00:16:00,41.6,40.0,30.19,WNW,297,0.0,0.0,94,0.00,,,0.00,0,Wunderground v.1.15,2013-03-08 05:16:00,
2013-03-08 00:21:00,41.5,39.9,30.19,WNW,297,0.0,0.0,94,0.00,,,0.00,0,Wunderground v.1.15,2013-03-08 05:21:00,
2013-03-08 00:27:00,41.4,39.8,30.19,WNW,297,0.0,0.0,94,0.00,,,0.00,0,Wunderground v.1.15,2013-03-08 05:27:00,
2013-03-08 00:32:00,41.3,40.0,30.19,WNW,297,0.0,0.0,95,0.00,,,0.00,0,Wunderground v.1.15,2013-03-08 05:32:00,
2013-03-08 00:37:00,41.2,39.9,30.19,WNW,297,0.0,0.0,95,0.00,,,0.00,0,Wunderground v.1.15,2013-03-08 05:37:00,
2013-03-08 00:43:00,41.2,39.9,30.19,WNW,297,0.0,0.0,95,0.00,,,0.00,0,Wunderground v.1.15,2013-03-08 05:43:00,
2013-03-08 00:48:00,41.1,39.8,30.19,WNW,297,0.0,0.0,95,0.00,,,0.00,0,Wunderground v.1.15,2013-03-08 05:48:00,
2013-03-08 00:54:00,41.1,39.8,30.19,WNW,297,0.0,0.0,95,0.00,,,0.00,0,Wunderground v.1.15,2013-03-08 05:54:00,
2013-03-08 01:00:00,41.1,39.8,30.19,WNW,297,0.0,0.0,95,0.00,,,0.00,0,Wunderground v.1.15,2013-03-08 06:00:00,
2013-03-08 01:06:00,41.1,39.8,30.19,WNW,297,0.0,0.0,95,0.00,,,0.00,0,Wunderground v.1.15,2013-03-08 06:06:00,
2013-03-08 01:11:00,41.0,39.7,30.19,WNW,297,0.0,0.0,95,0.00,,,0.00,0,Wunderground v.1.15,2013-03-08 06:11:00,
2013-03-08 01:17:00,40.8,39.5,30.19,WNW,297,0.0,0.0,95,0.00,,,0.00,0,Wunderground v.1.15,2013-03-08 06:17:00,
2013-03-08 01:22:00,40.8,39.5,30.19,WNW,297,0.0,0.0,95,0.00,,,0.00,0,Wunderground v.1.15,2013-03-08 06:22:00,
2013-03-08 01:28:00,40.8,39.5,30.19,WNW,297,0.0,0.0,95,0.00,,,0.00,0,Wunderground v.1.15,2013-03-08 06:28:00,
2013-03-08 01:33:00,41.1,39.8,30.19,WNW,297,0.0,0.0,95,0.00,,,0.00,0,Wunderground v.1.15,2013-03-08 06:33:00,
2013-03-08 01:39:00,41.2,39.6,30.19,WNW,297,0.0,0.0,94,0.00,,,0.00,0,Wunderground v.1.15,2013-03-08 06:39:00,
2013-03-08 01:45:00,41.1,39.0,30.19,WNW,297,0.0,0.0,92,0.00,,,0.00,0,Wunderground v.1.15,2013-03-08 06:45:00,
2013-03-08 01:51:00,40.9,38.8,30.19,WNW,297,0.0,0.0,92,0.00,,,0.00,0,Wunderground v.1.15,2013-03-08 06:51:00,
2013-03-08 01:56:00,40.9,38.8,30.19,WNW,297,0.0,0.0,92,0.00,,,0.00,0,Wunderground v.1.15,2013-03-08 06:56:00,
2013-03-08 02:01:00,40.8,38.7,30.20,WNW,297,0.0,0.0,92,0.00,,,0.00,0,Wunderground v.1.15,2013-03-08 07:01:00,
2013-03-08 02:07:00,41.1,38.7,30.20,WNW,297,0.0,1.0,91,0.00,,,0.00,0,Wunderground v.1.15,2013-03-08 07:07:00,
2013-03-08 02:13:00,41.5,38.5,30.20,WNW,297,0.0,1.0,89,0.00,,,0.00,0,Wunderground v.1.15,2013-03-08 07:13:00,
2013-03-08 02:18:00,41.9,38.0,30.20,NNE,21,1.0,5.0,86,0.00,,,0.00,0,Wunderground v.1.15,2013-03-08 07:18:00,
2013-03-08 02:24:00,42.1,37.9,30.20,North,11,1.0,2.0,85,0.00,,,0.00,0,Wunderground v.1.15,2013-03-08 07:24:00,
2013-03-08 02:30:00,42.2,37.7,30.20,NNE,18,1.0,2.0,84,0.00,,,0.00,0,Wunderground v.1.15,2013-03-08 07:30:00,
2013-03-08 02:36:00,42.2,37.4,30.20,NNE,18,1.0,3.0,83,0.00,,,0.00,0,Wunderground v.1.15,2013-03-08 07:36:00,
2013-03-08 02:42:00,42.2,37.1,30.20,NNE,18,1.0,1.0,82,0.00,,,0.00,0,Wunderground v.1.15,2013-03-08 07:42:00,
2013-03-08 02:48:00,42.2,36.8,30.20,NNE,19,1.0,2.0,81,0.00,,,0.00,0,Wunderground v.1.15,2013-03-08 07:48:00,
2013-03-08 02:54:00,42.2,36.5,30.20,NNE,19,1.0,2.0,80,0.00,,,0.00,0,Wunderground v.1.15,2013-03-08 07:54:00,
2013-03-08 02:59:00,42.2,36.5,30.20,NNE,15,1.0,4.0,80,0.00,,,0.00,0,Wunderground v.1.15,2013-03-08 07:59:00,
2013-03-08 03:05:00,42.3,36.3,30.20,NNE,15,1.0,3.0,79,0.00,,,0.00,0,Wunderground v.1.15,2013-03-08 08:05:00,
2013-03-08 03:10:00,42.3,35.9,30.20,North,11,1.0,1.0,78,0.00,,,0.00,0,Wunderground v.1.15,2013-03-08 08:10:00,
2013-03-08 03:16:00,42.3,35.9,30.20,North,7,2.0,4.0,78,0.00,,,0.00,0,Wunderground v.1.15,2013-03-08 08:16:00,
2013-03-08 03:22:00,42.3,35.9,30.20,NNE,14,1.0,3.0,78,0.00,,,0.00,0,Wunderground v.1.15,2013-03-08 08:22:00,
2013-03-08 03:28:00,42.4,36.0,30.20,NNE,28,1.0,4.0,78,0.00,,,0.00,0,Wunderground v.1.15,2013-03-08 08:28:00,
2013-03-08 03:33:00,42.3,35.6,30.20,NE,45,2.0,2.0,77,0.00,,,0.00,0,Wunderground v.1.15,2013-03-08 08:33:00,
2013-03-08 03:39:00,42.3,35.3,30.20,North,6,2.0,2.0,76,0.00,,,0.00,0,Wunderground v.1.15,2013-03-08 08:39:00,
2013-03-08 03:44:00,42.3,35.6,30.20,North,9,2.0,3.0,77,0.00,,,0.00,0,Wunderground v.1.15,2013-03-08 08:44:00,
2013-03-08 03:50:00,42.2,35.2,30.21,NNE,23,1.0,2.0,76,0.00,,,0.00,0,Wunderground v.1.15,2013-03-08 08:50:00,
2013-03-08 03:55:00,42.3,34.9,30.21,North,352,2.0,3.0,75,0.00,,,0.00,0,Wunderground v.1.15,2013-03-08 08:55:00,
2013-03-08 04:01:00,42.3,34.6,30.21,NNE,30,2.0,3.0,74,0.00,,,0.00,0,Wunderground v.1.15,2013-03-08 09:01:00,
2013-03-08 04:07:00,42.2,34.5,30.21,North,7,2.0,3.0,74,0.00,,,0.00,0,Wunderground v.1.15,2013-03-08 09:07:00,
2013-03-08 04:13:00,42.1,34.7,30.21,North,3,1.0,2.0,75,0.00,,,0.00,0,Wunderground v.1.15,2013-03-08 09:13:00,
2013-03-08 04:18:00,41.9,34.9,30.21,NNE,13,1.0,3.0,76,0.00,,,0.00,0,Wunderground v.1.15,2013-03-08 09:18:00,
2013-03-08 04:24:00,41.6,34.9,30.21,North,4,1.0,2.0,77,0.00,,,0.00,0,Wunderground v.1.15,2013-03-08 09:24:00,
2013-03-08 04:29:00,41.4,35.1,30.21,North,8,1.0,2.0,78,0.00,,,0.00,0,Wunderground v.1.15,2013-03-08 09:29:00,
2013-03-08 04:35:00,41.2,34.9,30.23,NE,36,1.0,2.0,78,0.00,,,0.00,0,Wunderground v.1.15,2013-03-08 09:35:00,
2013-03-08 04:40:00,41.1,34.4,30.23,North,356,1.0,1.0,77,0.00,,,0.00,0,Wunderground v.1.15,2013-03-08 09:40:00,
2013-03-08 04:46:00,41.0,34.3,30.23,NNE,19,1.0,3.0,77,0.00,,,0.00,0,Wunderground v.1.15,2013-03-08 09:46:00,
2013-03-08 04:51:00,40.9,33.9,30.23,North,3,1.0,5.0,76,0.00,,,0.00,0,Wunderground v.1.15,2013-03-08 09:51:00,
2013-03-08 04:57:00,40.8,33.8,30.23,North,10,1.0,5.0,76,0.00,,,0.00,0,Wunderground v.1.15,2013-03-08 09:57:00,
2013-03-08 05:03:00,40.7,33.7,30.23,NNE,27,1.0,3.0,76,0.00,,,0.00,0,Wunderground v.1.15,2013-03-08 10:03:00,
2013-03-08 05:09:00,40.6,33.6,30.23,NNE,19,1.0,3.0,76,0.00,,,0.00,0,Wunderground v.1.15,2013-03-08 10:09:00,
2013-03-08 05:14:00,40.6,33.3,30.23,NNE,20,1.0,1.0,75,0.00,,,0.00,0,Wunderground v.1.15,2013-03-08 10:14:00,
2013-03-08 05:20:00,40.6,33.3,30.23,NNE,13,1.0,2.0,75,0.00,,,0.00,0,Wunderground v.1.15,2013-03-08 10:20:00,
2013-03-08 05:25:00,40.5,33.2,30.23,NNE,23,1.0,4.0,75,0.00,,,0.00,0,Wunderground v.1.15,2013-03-08 10:25:00,
2013-03-08 05:31:00,40.5,32.9,30.23,NNE,19,2.0,2.0,74,0.00,,,0.00,0,Wunderground v.1.15,2013-03-08 10:31:00,
2013-03-08 05:36:00,40.5,32.9,30.23,NNE,27,2.0,3.0,74,0.00,,,0.00,0,Wunderground v.1.15,2013-03-08 10:36:00,
2013-03-08 05:42:00,40.4,32.8,30.23,NNE,14,1.0,4.0,74,0.00,,,0.00,0,Wunderground v.1.15,2013-03-08 10:42:00,
2013-03-08 05:47:00,40.3,32.7,30.24,North,4,1.0,4.0,74,0.00,,,0.00,0,Wunderground v.1.15,2013-03-08 10:47:00,
2013-03-08 05:52:00,40.3,32.3,30.24,NNE,19,1.0,2.0,73,0.00,,,0.00,0,Wunderground v.1.15,2013-03-08 10:52:00,
2013-03-08 05:58:00,40.2,32.2,30.24,ENE,67,1.0,4.0,73,0.00,,,0.00,0,Wunderground v.1.15,2013-03-08 10:58:00,
2013-03-08 06:03:00,40.1,32.1,30.24,WNW,299,1.0,4.0,73,0.00,,,0.00,0,Wunderground v.1.15,2013-03-08 11:03:00,
2013-03-08 06:09:00,40.1,32.1,30.24,North,4,1.0,4.0,73,0.00,,,0.00,0,Wunderground v.1.15,2013-03-08 11:09:00,
2013-03-08 06:15:00,40.0,32.0,30.24,North,9,2.0,5.0,73,0.00,,,0.00,0,Wunderground v.1.15,2013-03-08 11:15:00,
2013-03-08 06:20:00,40.0,31.7,30.24,North,6,1.0,2.0,72,0.00,,,0.00,0,Wunderground v.1.15,2013-03-08 11:20:00,
2013-03-08 06:26:00,40.0,31.7,30.24,NNE,31,1.0,2.0,72,0.00,,,0.00,0,Wunderground v.1.15,2013-03-08 11:26:00,
2013-03-08 06:31:00,39.9,31.9,30.24,NE,52,1.0,1.0,73,0.00,,,0.00,0,Wunderground v.1.15,2013-03-08 11:31:00,
2013-03-08 06:37:00,39.8,31.8,30.24,NNE,27,1.0,2.0,73,0.00,,,0.00,0,Wunderground v.1.15,2013-03-08 11:37:00,
2013-03-08 06:43:00,39.7,31.8,30.24,North,11,1.0,1.0,73,0.00,,,0.00,5,Wunderground v.1.15,2013-03-08 11:43:00,
2013-03-08 06:48:00,39.7,31.8,30.24,NNE,25,1.0,3.0,73,0.00,,,0.00,7,Wunderground v.1.15,2013-03-08 11:48:00,
2013-03-08 06:54:00,39.6,32.0,30.24,NNW,334,1.0,2.0,74,0.00,,,0.00,11,Wunderground v.1.15,2013-03-08 11:54:00,
2013-03-08 07:00:00,39.6,32.0,30.25,North,350,1.0,2.0,74,0.00,,,0.00,16,Wunderground v.1.15,2013-03-08 12:00:00,
2013-03-08 07:06:00,39.6,31.7,30.25,NNE,29,1.0,4.0,73,0.00,,,0.00,19,Wunderground v.1.15,2013-03-08 12:06:00,
2013-03-08 07:11:00,39.7,31.8,30.25,North,358,2.0,2.0,73,0.00,,,0.00,21,Wunderground v.1.15,2013-03-08 12:11:00,
2013-03-08 07:17:00,39.7,31.8,30.25,North,9,2.0,4.0,73,0.00,,,0.00,25,Wunderground v.1.15,2013-03-08 12:17:00,
2013-03-08 07:22:00,39.8,31.8,30.25,NNE,17,2.0,2.0,73,0.00,,,0.00,28,Wunderground v.1.15,2013-03-08 12:22:00,
2013-03-08 07:28:00,40.0,31.7,30.25,NNE,17,1.0,2.0,72,0.00,,,0.00,32,Wunderground v.1.15,2013-03-08 12:28:00,
2013-03-08 07:33:00,40.1,31.8,30.26,NNE,15,1.0,3.0,72,0.00,,,0.00,35,Wunderground v.1.15,2013-03-08 12:33:00,
2013-03-08 07:39:00,40.3,32.0,30.26,North,9,1.0,3.0,72,0.00,,,0.00,76,Wunderground v.1.15,2013-03-08 12:39:00,
2013-03-08 07:45:00,40.7,32.0,30.26,NE,34,1.0,2.0,71,0.00,,,0.00,56,Wunderground v.1.15,2013-03-08 12:45:00,
2013-03-08 07:50:00,41.0,31.6,30.26,NNE,21,2.0,3.0,69,0.00,,,0.00,54,Wunderground v.1.15,2013-03-08 12:50:00,
2013-03-08 07:56:00,41.2,31.8,30.26,North,5,2.0,3.0,69,0.00,,,0.00,69,Wunderground v.1.15,2013-03-08 12:56:00,
2013-03-08 08:01:00,41.5,32.1,30.27,North,6,2.0,2.0,69,0.00,,,0.00,218,Wunderground v.1.15,2013-03-08 13:01:00,
2013-03-08 08:07:00,41.9,32.1,30.27,NNE,20,2.0,4.0,68,0.00,,,0.00,241,Wunderground v.1.15,2013-03-08 13:07:00,
2013-03-08 08:13:00,42.6,32.0,30.27,NNE,21,2.0,2.0,66,0.00,,,0.00,257,Wunderground v.1.15,2013-03-08 13:13:00,
2013-03-08 08:18:00,43.1,32.5,30.27,NNE,17,1.0,3.0,66,0.00,,,0.00,260,Wunderground v.1.15,2013-03-08 13:18:00,
2013-03-08 08:24:00,43.4,32.0,30.27,North,10,2.0,5.0,64,0.00,,,0.00,301,Wunderground v.1.15,2013-03-08 13:24:00,
2013-03-08 08:29:00,43.7,32.3,30.27,North,357,2.0,5.0,64,0.00,,,0.00,306,Wunderground v.1.15,2013-03-08 13:29:00,
2013-03-08 08:34:00,43.9,32.1,30.28,NNE,23,2.0,2.0,63,0.00,,,0.00,295,Wunderground v.1.15,2013-03-08 13:34:00,
2013-03-08 08:39:00,44.1,32.3,30.28,ENE,58,2.0,4.0,63,0.00,,,0.00,176,Wunderground v.1.15,2013-03-08 13:39:00,
2013-03-08 08:44:00,44.4,32.2,30.28,NE,48,2.0,3.0,62,0.00,,,0.00,338,Wunderground v.1.15,2013-03-08 13:44:00,
2013-03-08 08:50:00,44.7,32.5,30.28,NNE,17,2.0,5.0,62,0.00,,,0.00,392,Wunderground v.1.15,2013-03-08 13:50:00,
2013-03-08 08:55:00,45.2,32.5,30.28,North,11,2.0,5.0,61,0.00,,,0.00,408,Wunderground v.1.15,2013-03-08 13:55:00,
2013-03-08 09:01:00,45.8,33.1,30.28,NNW,337,1.0,1.0,61,0.00,,,0.00,425,Wunderground v.1.15,2013-03-08 14:01:00,
2013-03-08 09:07:00,46.4,32.8,30.28,NNE,32,1.0,4.0,59,0.00,,,0.00,446,Wunderground v.1.15,2013-03-08 14:07:00,
2013-03-08 09:13:00,46.8,32.8,30.28,NNE,12,2.0,2.0,58,0.00,,,0.00,466,Wunderground v.1.15,2013-03-08 14:13:00,
2013-03-08 09:18:00,47.0,32.5,30.28,North,6,2.0,8.0,57,0.00,,,0.00,485,Wunderground v.1.15,2013-03-08 14:18:00,
2013-03-08 09:24:00,47.3,32.8,30.28,NNE,19,3.0,4.0,57,0.00,,,0.00,499,Wunderground v.1.15,2013-03-08 14:24:00,
2013-03-08 09:30:00,47.6,32.7,30.27,NNE,16,3.0,3.0,56,0.00,,,0.00,515,Wunderground v.1.15,2013-03-08 14:30:00,
2013-03-08 09:35:00,48.3,32.4,30.27,North,7,1.0,3.0,54,0.00,,,0.00,534,Wunderground v.1.15,2013-03-08 14:35:00,
2013-03-08 09:41:00,48.8,32.4,30.27,NE,56,2.0,2.0,53,0.00,,,0.00,547,Wunderground v.1.15,2013-03-08 14:41:00,
2013-03-08 09:46:00,49.4,32.5,30.27,North,6,2.0,2.0,52,0.00,,,0.00,563,Wunderground v.1.15,2013-03-08 14:46:00,
2013-03-08 09:52:00,49.8,32.9,30.27,NNE,13,1.0,2.0,52,0.00,,,0.00,578,Wunderground v.1.15,2013-03-08 14:52:00,
2013-03-08 09:58:00,50.4,32.4,30.27,North,3,1.0,3.0,50,0.00,,,0.00,598,Wunderground v.1.15,2013-03-08 14:58:00,
2013-03-08 10:03:00,50.5,31.5,30.27,North,7,2.0,4.0,48,0.00,,,0.00,610,Wunderground v.1.15,2013-03-08 15:03:00,
2013-03-08 10:09:00,50.3,31.8,30.27,North,358,2.0,4.0,49,0.00,,,0.00,622,Wunderground v.1.15,2013-03-08 15:09:00,
2013-03-08 10:14:00,50.7,31.2,30.27,North,7,2.0,4.0,47,0.00,,,0.00,638,Wunderground v.1.15,2013-03-08 15:14:00,
2013-03-08 10:20:00,50.7,31.7,30.27,North,11,2.0,2.0,48,0.00,,,0.00,652,Wunderground v.1.15,2013-03-08 15:20:00,
2013-03-08 10:25:00,51.1,32.1,30.27,NNE,27,2.0,2.0,48,0.00,,,0.00,663,Wunderground v.1.15,2013-03-08 15:25:00,
2013-03-08 10:31:00,51.6,33.0,30.26,NNE,13,2.0,6.0,49,0.00,,,0.00,673,Wunderground v.1.15,2013-03-08 15:31:00,
2013-03-08 10:37:00,51.9,32.8,30.26,NW,316,2.0,6.0,48,0.00,,,0.00,691,Wunderground v.1.15,2013-03-08 15:37:00,
2013-03-08 10:43:00,52.3,33.2,30.26,East,81,2.0,3.0,48,0.00,,,0.00,701,Wunderground v.1.15,2013-03-08 15:43:00,
2013-03-08 10:48:00,52.8,33.6,30.26,ENE,57,1.0,3.0,48,0.00,,,0.00,708,Wunderground v.1.15,2013-03-08 15:48:00,
2013-03-08 10:54:00,52.9,32.1,30.26,NNE,28,2.0,4.0,45,0.00,,,0.00,719,Wunderground v.1.15,2013-03-08 15:54:00,
2013-03-08 11:00:00,53.3,31.9,30.26,NW,323,2.0,2.0,44,0.00,,,0.00,731,Wunderground v.1.15,2013-03-08 16:00:00,
2013-03-08 11:06:00,53.6,32.2,30.26,NNW,335,2.0,4.0,44,0.00,,,0.00,744,Wunderground v.1.15,2013-03-08 16:06:00,
2013-03-08 11:11:00,53.6,32.2,30.26,NE,54,2.0,2.0,44,0.00,,,0.00,745,Wunderground v.1.15,2013-03-08 16:11:00,
2013-03-08 11:17:00,54.1,32.1,30.26,NE,34,1.0,2.0,43,0.00,,,0.00,752,Wunderground v.1.15,2013-03-08 16:17:00,
2013-03-08 11:22:00,54.1,32.6,30.26,NNW,328,1.0,1.0,44,0.00,,,0.00,761,Wunderground v.1.15,2013-03-08 16:22:00,
2013-03-08 11:28:00,54.4,31.8,30.26,NE,35,1.0,4.0,42,0.00,,,0.00,768,Wunderground v.1.15,2013-03-08 16:28:00,
2013-03-08 11:33:00,55.1,33.0,30.26,NNW,344,1.0,2.0,43,0.00,,,0.00,773,Wunderground v.1.15,2013-03-08 16:33:00,
2013-03-08 11:39:00,55.5,32.8,30.26,North,358,1.0,4.0,42,0.00,,,0.00,782,Wunderground v.1.15,2013-03-08 16:39:00,
2013-03-08 11:44:00,56.1,33.3,30.26,NNW,336,1.0,4.0,42,0.00,,,0.00,786,Wunderground v.1.15,2013-03-08 16:44:00,
2013-03-08 11:50:00,56.3,32.3,30.25,NW,315,1.0,4.0,40,0.00,,,0.00,791,Wunderground v.1.15,2013-03-08 16:50:00,
2013-03-08 11:55:00,56.3,31.6,30.25,NNE,15,1.0,4.0,39,0.00,,,0.00,795,Wunderground v.1.15,2013-03-08 16:55:00,
2013-03-08 12:00:00,56.2,30.9,30.25,NW,311,1.0,1.0,38,0.00,,,0.00,795,Wunderground v.1.15,2013-03-08 17:00:00,
2013-03-08 12:06:00,56.5,31.8,30.25,NNE,27,2.0,3.0,39,0.00,,,0.00,796,Wunderground v.1.15,2013-03-08 17:06:00,
2013-03-08 12:11:00,56.7,32.0,30.25,North,11,2.0,3.0,39,0.00,,,0.00,803,Wunderground v.1.15,2013-03-08 17:11:00,
2013-03-08 12:17:00,56.8,31.4,30.24,NNE,29,2.0,3.0,38,0.00,,,0.00,802,Wunderground v.1.15,2013-03-08 17:17:00,
2013-03-08 12:22:00,57.2,31.8,30.24,NNW,343,2.0,4.0,38,0.00,,,0.00,803,Wunderground v.1.15,2013-03-08 17:22:00,
2013-03-08 12:28:00,57.6,32.2,30.24,SW,222,2.0,4.0,38,0.00,,,0.00,807,Wunderground v.1.15,2013-03-08 17:28:00,
2013-03-08 12:33:00,58.2,32.0,30.24,NNW,338,1.0,4.0,37,0.00,,,0.00,809,Wunderground v.1.15,2013-03-08 17:33:00,
2013-03-08 12:39:00,58.5,30.9,30.24,West,275,2.0,8.0,35,0.00,,,0.00,810,Wunderground v.1.15,2013-03-08 17:39:00,
2013-03-08 12:45:00,58.4,31.5,30.23,SSW,213,2.0,6.0,36,0.00,,,0.00,805,Wunderground v.1.15,2013-03-08 17:45:00,
2013-03-08 12:51:00,58.3,30.7,30.23,NNW,342,3.0,3.0,35,0.00,,,0.00,802,Wunderground v.1.15,2013-03-08 17:51:00,
2013-03-08 12:56:00,58.1,31.9,30.23,SW,216,2.0,6.0,37,0.00,,,0.00,798,Wunderground v.1.15,2013-03-08 17:56:00,
2013-03-08 13:02:00,58.6,31.0,30.22,NW,325,2.0,3.0,35,0.00,,,0.00,793,Wunderground v.1.15,2013-03-08 18:02:00,
2013-03-08 13:07:00,58.6,31.0,30.22,NW,315,2.0,3.0,35,0.00,,,0.00,789,Wunderground v.1.15,2013-03-08 18:07:00,
2013-03-08 13:13:00,58.8,31.9,30.22,NNW,337,1.0,2.0,36,0.00,,,0.00,784,Wunderground v.1.15,2013-03-08 18:13:00,
2013-03-08 13:18:00,59.3,30.9,30.21,NNW,327,1.0,2.0,34,0.00,,,0.00,782,Wunderground v.1.15,2013-03-08 18:18:00,
2013-03-08 13:24:00,59.7,32.0,30.21,NNW,332,2.0,6.0,35,0.00,,,0.00,773,Wunderground v.1.15,2013-03-08 18:24:00,
2013-03-08 13:30:00,60.0,32.2,30.21,NNE,16,2.0,2.0,35,0.00,,,0.00,756,Wunderground v.1.15,2013-03-08 18:30:00,
2013-03-08 13:36:00,60.2,31.0,30.21,NW,316,1.0,2.0,33,0.00,,,0.00,759,Wunderground v.1.15,2013-03-08 18:36:00,
2013-03-08 13:41:00,60.4,31.1,30.21,NNE,15,2.0,6.0,33,0.00,,,0.00,749,Wunderground v.1.15,2013-03-08 18:41:00,
2013-03-08 13:47:00,60.3,31.0,30.20,WSW,252,2.0,6.0,33,0.00,,,0.00,744,Wunderground v.1.15,2013-03-08 18:47:00,
2013-03-08 13:52:00,60.4,30.4,30.20,NNW,327,2.0,5.0,32,0.00,,,0.00,737,Wunderground v.1.15,2013-03-08 18:52:00,
2013-03-08 13:58:00,60.5,32.7,30.20,SSE,158,2.0,5.0,35,0.00,,,0.00,722,Wunderground v.1.15,2013-03-08 18:58:00,
2013-03-08 14:03:00,59.3,38.5,30.21,WSW,248,2.0,4.0,46,0.00,,,0.00,717,Wunderground v.1.15,2013-03-08 19:03:00,
2013-03-08 14:09:00,58.6,39.0,30.21,NNE,15,2.0,4.0,48,0.00,,,0.00,707,Wunderground v.1.15,2013-03-08 19:09:00,
2013-03-08 14:15:00,58.9,39.2,30.20,East,86,1.0,2.0,48,0.00,,,0.00,696,Wunderground v.1.15,2013-03-08 19:15:00,
2013-03-08 14:21:00,58.3,39.7,30.20,SW,233,2.0,3.0,50,0.00,,,0.00,682,Wunderground v.1.15,2013-03-08 19:21:00,
2013-03-08 14:26:00,57.7,39.7,30.20,WNW,293,2.0,5.0,51,0.00,,,0.00,671,Wunderground v.1.15,2013-03-08 19:26:00,
2013-03-08 14:32:00,57.1,40.1,30.19,WSW,254,2.0,2.0,53,0.00,,,0.00,663,Wunderground v.1.15,2013-03-08 19:32:00,
2013-03-08 14:37:00,57.1,41.1,30.19,NNE,19,2.0,4.0,55,0.00,,,0.00,650,Wunderground v.1.15,2013-03-08 19:37:00,
2013-03-08 14:43:00,57.5,39.0,30.19,NNE,18,2.0,4.0,50,0.00,,,0.00,640,Wunderground v.1.15,2013-03-08 19:43:00,
2013-03-08 14:48:00,58.7,32.5,30.18,NNE,33,2.0,4.0,37,0.00,,,0.00,628,Wunderground v.1.15,2013-03-08 19:48:00,
2013-03-08 14:54:00,60.0,32.2,30.18,NE,41,2.0,2.0,35,0.00,,,0.00,615,Wunderground v.1.15,2013-03-08 19:54:00,
2013-03-08 15:00:00,60.8,32.2,30.17,NW,304,2.0,2.0,34,0.00,,,0.00,599,Wunderground v.1.15,2013-03-08 20:00:00,
2013-03-08 15:06:00,61.2,31.8,30.17,North,356,2.0,4.0,33,0.00,,,0.00,585,Wunderground v.1.15,2013-03-08 20:06:00,
2013-03-08 15:12:00,61.0,30.9,30.17,WSW,243,3.0,3.0,32,0.00,,,0.00,571,Wunderground v.1.15,2013-03-08 20:12:00,
2013-03-08 15:18:00,61.1,30.2,30.17,NNE,27,2.0,5.0,31,0.00,,,0.00,552,Wunderground v.1.15,2013-03-08 20:18:00,
2013-03-08 15:24:00,61.0,29.3,30.17,West,277,3.0,6.0,30,0.00,,,0.00,534,Wunderground v.1.15,2013-03-08 20:24:00,
2013-03-08 15:29:00,60.9,30.0,30.17,WSW,240,3.0,6.0,31,0.00,,,0.00,520,Wunderground v.1.15,2013-03-08 20:29:00,
2013-03-08 15:35:00,60.8,30.7,30.17,WNW,288,2.0,5.0,32,0.00,,,0.00,497,Wunderground v.1.15,2013-03-08 20:35:00,
2013-03-08 15:40:00,60.9,29.2,30.17,WNW,287,2.0,4.0,30,0.00,,,0.00,485,Wunderground v.1.15,2013-03-08 20:40:00,
2013-03-08 15:46:00,60.8,29.9,30.16,WNW,296,2.0,4.0,31,0.00,,,0.00,464,Wunderground v.1.15,2013-03-08 20:46:00,
2013-03-08 15:52:00,60.9,30.0,30.16,WNW,302,2.0,2.0,31,0.00,,,0.00,446,Wunderground v.1.15,2013-03-08 20:52:00,
2013-03-08 15:58:00,61.0,29.3,30.16,East,95,2.0,7.0,30,0.00,,,0.00,431,Wunderground v.1.15,2013-03-08 20:58:00,
2013-03-08 16:03:00,61.0,29.3,30.17,North,7,2.0,2.0,30,0.00,,,0.00,408,Wunderground v.1.15,2013-03-08 21:03:00,
2013-03-08 16:09:00,61.0,28.5,30.17,NNE,27,2.0,5.0,29,0.00,,,0.00,392,Wunderground v.1.15,2013-03-08 21:09:00,
2013-03-08 16:15:00,60.9,28.4,30.16,NW,323,2.0,4.0,29,0.00,,,0.00,373,Wunderground v.1.15,2013-03-08 21:15:00,
2013-03-08 16:21:00,60.6,29.0,30.16,NW,312,2.0,4.0,30,0.00,,,0.00,353,Wunderground v.1.15,2013-03-08 21:21:00,
2013-03-08 16:26:00,60.6,28.1,30.16,NE,47,2.0,4.0,29,0.00,,,0.00,338,Wunderground v.1.15,2013-03-08 21:26:00,
2013-03-08 16:32:00,60.6,29.8,30.16,NNW,347,2.0,2.0,31,0.00,,,0.00,316,Wunderground v.1.15,2013-03-08 21:32:00,
2013-03-08 16:37:00,60.6,29.8,30.16,NNW,346,2.0,2.0,31,0.00,,,0.00,294,Wunderground v.1.15,2013-03-08 21:37:00,
2013-03-08 16:43:00,60.5,28.1,30.16,North,7,3.0,4.0,29,0.00,,,0.00,241,Wunderground v.1.15,2013-03-08 21:43:00,
2013-03-08 16:48:00,60.2,29.4,30.16,NW,323,2.0,4.0,31,0.00,,,0.00,206,Wunderground v.1.15,2013-03-08 21:48:00,
2013-03-08 16:54:00,60.2,30.2,30.16,NNE,25,2.0,3.0,32,0.00,,,0.00,186,Wunderground v.1.15,2013-03-08 21:54:00,
2013-03-08 17:00:00,60.1,28.5,30.16,North,7,2.0,2.0,30,0.00,,,0.00,144,Wunderground v.1.15,2013-03-08 22:00:00,
2013-03-08 17:06:00,59.7,29.0,30.16,NW,304,2.0,3.0,31,0.00,,,0.00,44,Wunderground v.1.15,2013-03-08 22:06:00,
2013-03-08 17:11:00,59.4,29.5,30.16,NW,320,2.0,2.0,32,0.00,,,0.00,39,Wunderground v.1.15,2013-03-08 22:11:00,
2013-03-08 17:17:00,59.2,30.1,30.16,North,7,1.0,2.0,33,0.00,,,0.00,35,Wunderground v.1.15,2013-03-08 22:17:00,
2013-03-08 17:22:00,58.9,29.8,30.16,NW,319,1.0,2.0,33,0.00,,,0.00,32,Wunderground v.1.15,2013-03-08 22:22:00,
2013-03-08 17:28:00,58.7,30.4,30.16,NW,308,1.0,2.0,34,0.00,,,0.00,30,Wunderground v.1.15,2013-03-08 22:28:00,
2013-03-08 17:33:00,58.5,30.9,30.16,WNW,300,1.0,1.0,35,0.00,,,0.00,26,Wunderground v.1.15,2013-03-08 22:33:00,
2013-03-08 17:39:00,58.2,29.9,30.16,WSW,250,0.0,3.0,34,0.00,,,0.00,23,Wunderground v.1.15,2013-03-08 22:39:00,
2013-03-08 17:45:00,58.0,30.5,30.16,North,11,0.0,1.0,35,0.00,,,0.00,21,Wunderground v.1.15,2013-03-08 22:45:00,
2013-03-08 17:51:00,57.8,30.3,30.16,North,11,0.0,1.0,35,0.00,,,0.00,18,Wunderground v.1.15,2013-03-08 22:51:00,
2013-03-08 17:56:00,57.6,30.1,30.16,NNW,333,0.0,1.0,35,0.00,,,0.00,16,Wunderground v.1.15,2013-03-08 22:56:00,
2013-03-08 18:02:00,57.4,29.2,30.16,NNE,32,1.0,1.0,34,0.00,,,0.00,14,Wunderground v.1.15,2013-03-08 23:02:00,
2013-03-08 18:07:00,57.2,29.1,30.16,North,352,1.0,1.0,34,0.00,,,0.00,11,Wunderground v.1.15,2013-03-08 23:07:00,
2013-03-08 18:13:00,57.0,29.6,30.16,North,352,0.0,1.0,35,0.00,,,0.00,7,Wunderground v.1.15,2013-03-08 23:13:00,
2013-03-08 18:18:00,56.6,30.6,30.17,North,352,0.0,1.0,37,0.00,,,0.00,5,Wunderground v.1.15,2013-03-08 23:18:00,
2013-03-08 18:24:00,56.2,30.9,30.17,North,352,0.0,0.0,38,0.00,,,0.00,0,Wunderground v.1.15,2013-03-08 23:24:00,
2013-03-08 18:30:00,55.7,31.7,30.18,North,352,0.0,0.0,40,0.00,,,0.00,0,Wunderground v.1.15,2013-03-08 23:30:00,
2013-03-08 18:36:00,55.1,31.8,30.18,North,352,0.0,0.0,41,0.00,,,0.00,0,Wunderground v.1.15,2013-03-08 23:36:00,
2013-03-08 18:41:00,54.7,32.0,30.18,North,352,0.0,0.0,42,0.00,,,0.00,0,Wunderground v.1.15,2013-03-08 23:41:00,
2013-03-08 18:47:00,54.1,32.6,30.19,North,352,0.0,0.0,44,0.00,,,0.00,0,Wunderground v.1.15,2013-03-08 23:47:00,
2013-03-08 18:52:00,53.6,32.2,30.19,North,352,0.0,0.0,44,0.00,,,0.00,0,Wunderground v.1.15,2013-03-08 23:52:00,
2013-03-08 18:58:00,53.1,32.3,30.19,North,352,0.0,0.0,45,0.00,,,0.00,0,Wunderground v.1.15,2013-03-08 23:58:00,
2013-03-08 19:03:00,52.7,32.5,30.20,North,352,0.0,0.0,46,0.00,,,0.00,0,Wunderground v.1.15,2013-03-09 00:03:00,
2013-03-08 19:09:00,52.3,32.1,30.20,North,352,0.0,0.0,46,0.00,,,0.00,0,Wunderground v.1.15,2013-03-09 00:09:00,
2013-03-08 19:14:00,51.9,32.3,30.20,North,352,0.0,0.0,47,0.00,,,0.00,0,Wunderground v.1.15,2013-03-09 00:14:00,
2013-03-08 19:20:00,51.4,32.3,30.21,North,352,0.0,0.0,48,0.00,,,0.00,0,Wunderground v.1.15,2013-03-09 00:20:00,
2013-03-08 19:25:00,51.1,33.1,30.21,North,352,0.0,0.0,50,0.00,,,0.00,0,Wunderground v.1.15,2013-03-09 00:25:00,
2013-03-08 19:31:00,50.6,33.1,30.21,North,352,0.0,0.0,51,0.00,,,0.00,0,Wunderground v.1.15,2013-03-09 00:31:00,
2013-03-08 19:37:00,50.0,33.1,30.21,North,352,0.0,0.0,52,0.00,,,0.00,0,Wunderground v.1.15,2013-03-09 00:37:00,
2013-03-08 19:43:00,49.5,33.1,30.21,North,352,0.0,0.0,53,0.00,,,0.00,0,Wunderground v.1.15,2013-03-09 00:43:00,
2013-03-08 19:48:00,49.1,34.1,30.22,North,352,0.0,0.0,56,0.00,,,0.00,0,Wunderground v.1.15,2013-03-09 00:48:00,
2013-03-08 19:54:00,48.7,34.1,30.22,North,352,0.0,0.0,57,0.00,,,0.00,0,Wunderground v.1.15,2013-03-09 00:54:00,
2013-03-08 19:59:00,48.3,33.8,30.22,North,352,0.0,0.0,57,0.00,,,0.00,0,Wunderground v.1.15,2013-03-09 00:59:00,
2013-03-08 20:05:00,47.8,34.6,30.22,North,352,0.0,0.0,60,0.00,,,0.00,0,Wunderground v.1.15,2013-03-09 01:05:00,
2013-03-08 20:10:00,47.3,34.9,30.22,North,352,0.0,0.0,62,0.00,,,0.00,0,Wunderground v.1.15,2013-03-09 01:10:00,
2013-03-08 20:16:00,46.7,34.8,30.23,North,352,0.0,0.0,63,0.00,,,0.00,0,Wunderground v.1.15,2013-03-09 01:16:00,
2013-03-08 20:22:00,46.2,35.1,30.23,North,352,0.0,0.0,65,0.00,,,0.00,0,Wunderground v.1.15,2013-03-09 01:22:00,
2013-03-08 20:28:00,45.9,35.2,30.23,North,352,0.0,0.0,66,0.00,,,0.00,0,Wunderground v.1.15,2013-03-09 01:28:00,
2013-03-08 20:33:00,45.5,35.5,30.24,North,352,0.0,0.0,68,0.00,,,0.00,0,Wunderground v.1.15,2013-03-09 01:33:00,
2013-03-08 20:39:00,45.2,35.3,30.24,North,352,0.0,0.0,68,0.00,,,0.00,0,Wunderground v.1.15,2013-03-09 01:39:00,
2013-03-08 20:45:00,44.8,34.9,30.25,North,352,0.0,0.0,68,0.00,,,0.00,0,Wunderground v.1.15,2013-03-09 01:45:00,
2013-03-08 20:50:00,44.5,34.6,30.25,North,352,0.0,0.0,68,0.00,,,0.00,0,Wunderground v.1.15,2013-03-09 01:50:00,
2013-03-08 20:55:00,44.3,34.4,30.25,North,352,0.0,0.0,68,0.00,,,0.00,0,Wunderground v.1.15,2013-03-09 01:55:00,
2013-03-08 21:01:00,44.0,33.7,30.25,North,352,0.0,0.0,67,0.00,,,0.00,0,Wunderground v.1.15,2013-03-09 02:01:00,
2013-03-08 21:06:00,43.8,32.8,30.25,North,352,0.0,0.0,65,0.00,,,0.00,0,Wunderground v.1.15,2013-03-09 02:06:00,
2013-03-08 21:12:00,43.5,32.5,30.25,North,352,0.0,0.0,65,0.00,,,0.00,0,Wunderground v.1.15,2013-03-09 02:12:00,
2013-03-08 21:18:00,43.4,32.4,30.26,North,352,0.0,0.0,65,0.00,,,0.00,0,Wunderground v.1.15,2013-03-09 02:18:00,
2013-03-08 21:24:00,43.4,32.4,30.26,North,352,0.0,0.0,65,0.00,,,0.00,0,Wunderground v.1.15,2013-03-09 02:24:00,
2013-03-08 21:29:00,43.4,32.8,30.26,North,352,0.0,0.0,66,0.00,,,0.00,0,Wunderground v.1.15,2013-03-09 02:29:00,
2013-03-08 21:35:00,43.3,33.1,30.26,North,352,0.0,0.0,67,0.00,,,0.00,0,Wunderground v.1.15,2013-03-09 02:35:00,
2013-03-08 21:40:00,43.3,33.1,30.26,North,352,0.0,0.0,67,0.00,,,0.00,0,Wunderground v.1.15,2013-03-09 02:40:00,
2013-03-08 21:46:00,43.2,33.7,30.27,North,352,0.0,0.0,69,0.00,,,0.00,0,Wunderground v.1.15,2013-03-09 02:46:00,
2013-03-08 21:52:00,43.3,34.5,30.27,North,352,0.0,0.0,71,0.00,,,0.00,0,Wunderground v.1.15,2013-03-09 02:52:00,
2013-03-08 21:58:00,43.2,34.4,30.27,North,352,0.0,0.0,71,0.00,,,0.00,0,Wunderground v.1.15,2013-03-09 02:58:00,
2013-03-08 22:03:00,43.0,34.6,30.27,North,352,0.0,0.0,72,0.00,,,0.00,0,Wunderground v.1.15,2013-03-09 03:03:00,
2013-03-08 22:09:00,42.9,34.5,30.27,North,352,0.0,0.0,72,0.00,,,0.00,0,Wunderground v.1.15,2013-03-09 03:09:00,
2013-03-08 22:15:00,42.8,34.4,30.27,North,352,0.0,0.0,72,0.00,,,0.00,0,Wunderground v.1.15,2013-03-09 03:15:00,
2013-03-08 22:21:00,42.6,34.5,30.27,North,352,0.0,0.0,73,0.00,,,0.00,0,Wunderground v.1.15,2013-03-09 03:21:00,
2013-03-08 22:26:00,42.4,34.0,30.27,North,352,0.0,0.0,72,0.00,,,0.00,0,Wunderground v.1.15,2013-03-09 03:26:00,
2013-03-08 22:32:00,42.2,34.5,30.28,North,352,0.0,0.0,74,0.00,,,0.00,0,Wunderground v.1.15,2013-03-09 03:32:00,
2013-03-08 22:37:00,42.0,34.3,30.28,North,352,0.0,0.0,74,0.00,,,0.00,0,Wunderground v.1.15,2013-03-09 03:37:00,
2013-03-08 22:43:00,41.9,34.6,30.28,North,352,0.0,0.0,75,0.00,,,0.00,0,Wunderground v.1.15,2013-03-09 03:43:00,
2013-03-08 22:48:00,41.9,34.9,30.27,North,352,0.0,0.0,76,0.00,,,0.00,0,Wunderground v.1.15,2013-03-09 03:48:00,
2013-03-08 22:54:00,41.9,35.2,30.27,North,352,0.0,0.0,77,0.00,,,0.00,0,Wunderground v.1.15,2013-03-09 03:54:00,
2013-03-08 22:59:00,41.9,35.5,30.27,North,352,0.0,0.0,78,0.00,,,0.00,0,Wunderground v.1.15,2013-03-09 03:59:00,
2013-03-08 23:05:00,41.8,35.8,30.26,North,352,0.0,0.0,79,0.00,,,0.00,0,Wunderground v.1.15,2013-03-09 04:05:00,
2013-03-08 23:10:00,41.8,36.1,30.26,North,352,0.0,0.0,80,0.00,,,0.00,0,Wunderground v.1.15,2013-03-09 04:10:00,
2013-03-08 23:16:00,41.7,35.0,30.26,North,352,0.0,0.0,77,0.00,,,0.00,0,Wunderground v.1.15,2013-03-09 04:16:00,
2013-03-08 23:21:00,41.7,35.7,30.26,North,352,0.0,0.0,79,0.00,,,0.00,0,Wunderground v.1.15,2013-03-09 04:21:00,
2013-03-08 23:27:00,41.8,35.8,30.26,North,352,0.0,0.0,79,0.00,,,0.00,0,Wunderground v.1.15,2013-03-09 04:27:00,
2013-03-08 23:32:00,41.7,35.7,30.25,North,352,0.0,0.0,79,0.00,,,0.00,0,Wunderground v.1.15,2013-03-09 04:32:00,
2013-03-08 23:37:00,41.7,36.0,30.25,North,352,0.0,0.0,80,0.00,,,0.00,0,Wunderground v.1.15,2013-03-09 04:37:00,
2013-03-08 23:43:00,41.5,34.5,30.25,North,352,0.0,0.0,76,0.00,,,0.00,0,Wunderground v.1.15,2013-03-09 04:43:00,
2013-03-08 23:48:00,41.4,34.4,30.25,North,352,0.0,0.0,76,0.00,,,0.00,0,Wunderground v.1.15,2013-03-09 04:48:00,
2013-03-08 23:54:00,41.3,35.0,30.25,North,352,0.0,0.0,78,0.00,,,0.00,0,Wunderground v.1.15,2013-03-09 04:54:00,